Dewpoint
65 65 65 65 65 65 64 64 63 63 62 62 62 62 62 63 63 63 63 63 63 63 63 63 63 63 64 64 64 64 64 64 64 64 64 64 64 64 64 64 64 64 64 65 65 65 65 64 61 59 58 59 59 59 59 60 61 61 60 61 61 60 61 63 65 65 66 65 65 64 63 63 63 63 63 63 63 63 63 63 63 64 64 65 66 67 67 67 66 66 65 64 64 63 63 63 64 64 64 64 64 64 64
65 65 65 65 65 65 64 64 63 63 63 63 63 63 63 63 63 63 63 64 64 63 63 63 64 64 64 64 64 64 65 65 65 65 65 65 64 64 64 64 64 65 65 65 66 66 66 63 61 59 59 59 59 60 60 61 62 62 62 61 61 62 62 64 66 66 66 66 66 65 65 64 63 63 63 63 63 63 63 63 64 64 64 65 66 67 68 68 68 67 66 65 64 63 63 63 64 64 64 64 64 64 64
66 66 65 65 65 65 64 64 64 63 63 63 63 63 63 63 63 63 64 64 64 64 64 64 64 64 64 64 65 65 65 65 65 65 65 65 65 65 65 65 65 65 66 66 66 66 66 64 62 60 60 60 60 60 61 61 62 62 62 62 62 63 63 65 66 66 66 66 66 66 65 65 64 64 63 63 63 63 63 63 64 64 64 65 65 66 67 68 68 67 66 65 64 64 63 64 64 64 64 64 64 64 64
66 66 65 65 65 65 65 64 64 63 63 63 63 63 63 63 63 64 64 64 64 64 64 64 64 64 65 65 65 65 65 65 65 65 65 65 65 65 66 66 66 66 66 67 67 67 65 63 62 61 61 60 60 61 61 62 62 62 61 62 63 63 64 65 66 66 66 66 66 66 66 66 65 65 64 64 64 63 63 63 63 63 64 64 64 65 66 66 66 66 66 66 65 64 64 64 64 64 64 64 64 64 64
66 66 65 65 65 65 65 64 64 64 63 63 63 63 63 63 63 64 64 64 64 64 64 64 64 65 65 65 65 65 65 65 66 66 66 66 66 66 66 67 67 67 67 67 67 67 64 63 62 61 61 61 61 60 61 61 61 61 61 62 62 63 65 65 66 66 66 66 66 66 66 66 66 65 65 65 64 64 64 64 64 64 64 64 64 64 65 65 65 66 66 66 65 65 65 65 64 64 64 64 64 64 65
66 66 66 65 65 65 65 65 64 64 64 64 64 63 64 64 64 64 64 64 64 64 64 64 65 65 65 65 66 66 66 66 66 66 66 66 67 67 67 67 68 68 68 67 68 67 66 63 61 61 61 61 60 60 60 61 61 61 61 61 62 63 65 66 66 66 66 66 66 66 66 66 66 66 66 65 65 65 65 65 65 65 64 64 64 64 64 65 65 65 65 65 65 65 65 65 65 65 65 65 65 65 65
66 66 66 65 65 65 65 65 65 65 65 64 64 64 64 64 64 64 64 65 65 65 65 65 65 66 66 66 66 67 67 67 67 67 67 67 67 68 68 68 68 67 67 67 67 67 66 63 62 62 61 61 60 60 60 60 60 60 60 61 62 63 65 66 66 66 67 66 66 66 67 67 67 66 66 65 65 65 65 65 65 65 65 65 64 64 64 64 64 65 65 66 66 66 66 66 65 65 66 66 66 66 66
66 66 66 66 66 66 66 65 65 65 65 65 64 64 64 64 64 64 64 65 65 65 65 65 66 66 67 67 67 67 67 68 68 68 67 67 67 67 67 67 67 67 67 67 67 66 66 64 63 62 61 61 60 60 59 59 59 60 60 61 62 64 65 66 66 66 67 67 67 67 67 67 67 67 66 66 65 65 65 65 65 65 65 64 64 64 64 64 64 65 66 67 67 68 68 67 67 66 66 66 67 67 67
66 67 66 66 66 66 66 66 66 65 65 65 65 65 65 65 65 65 65 65 65 65 66 66 67 67 67 67 68 67 67 67 67 67 67 67 67 67 67 67 66 66 66 66 66 66 65 64 63 62 60 60 60 59 60 59 59 59 60 61 62 64 65 66 66 67 67 67 67 67 67 67 67 67 66 66 65 65 65 65 65 65 64 64 64 64 65 65 65 66 67 68 68 68 69 68 68 67 67 67 67 67 67
67 67 67 67 67 67 67 66 66 66 65 65 65 65 65 65 65 65 65 65 66 66 67 67 67 67 67 67 67 67 67 67 67 67 67 66 66 66 66 66 65 65 65 65 64 64 64 63 63 61 60 60 59 59 60 59 59 59 60 62 63 64 65 66 66 67 67 67 67 67 67 66 66 66 66 66 65 65 65 65 65 65 65 65 65 65 66 66 67 67 67 67 68 68 68 68 68 68 68 68 68 67 67
68 68 68 68 68 68 67 67 67 66 66 66 66 66 66 66 66 66 66 66 67 67 67 67 67 67 67 66 66 66 66 66 66 66 66 65 65 65 64 64 64 63 63 63 63 63 64 63 61 60 59 59 59 59 59 59 59 59 60 62 63 65 65 66 66 67 67 67 66 66 66 66 66 65 65 65 65 65 65 65 65 66 66 66 66 67 67 68 68 68 67 67 67 67 67 68 68 68 68 68 68 68 68
68 68 68 68 68 67 67 67 67 66 66 66 66 66 67 67 67 67 67 67 67 67 67 67 66 66 65 65 65 65 64 64 64 64 64 63 63 63 63 62 62 62 61 62 63 63 63 61 59 58 58 58 58 58 58 58 59 59 59 62 63 64 65 66 66 66 66 66 66 66 66 65 65 65 65 65 65 65 66 66 67 67 67 67 67 68 68 68 68 68 67 67 67 67 67 67 68 68 68 68 68 68 68
68 68 67 67 67 67 66 66 66 65 65 65 66 66 67 67 67 67 67 67 67 66 66 65 65 64 64 64 63 63 63 63 63 62 62 61 61 61 60 60 59 59 60 61 62 62 59 57 56 56 55 56 56 56 57 57 58 59 60 62 63 64 64 65 66 66 66 66 66 66 65 65 65 65 65 65 66 66 67 67 67 68 67 67 68 68 68 68 68 68 68 68 68 68 68 68 68 68 68 68 68 68 68
67 67 66 66 66 66 65 65 65 65 65 65 66 66 67 67 67 67 67 66 66 65 64 64 63 63 63 62 61 61 60 60 60 59 59 59 58 58 58 57 57 58 61 62 59 57 55 54 54 54 53 54 54 55 57 56 57 59 60 62 63 63 64 64 65 65 66 66 66 65 65 65 65 65 65 65 66 66 67 67 67 67 67 67 67 67 67 68 68 68 68 68 68 68 68 68 68 68 68 68 68 68 68
65 65 65 65 65 65 64 64 64 64 64 65 66 66 67 67 67 66 65 65 64 63 63 62 62 61 60 59 59 58 58 57 57 57 56 56 55 55 55 55 56 58 61 57 53 51 51 51 51 51 51 52 52 53 55 55 57 59 61 62 63 63 63 63 64 64 65 65 65 65 65 65 65 65 65 65 65 65 66 66 66 66 66 66 66 67 67 67 68 68 68 67 67 67 67 68 68 68 68 68 68 68 69
63 63 64 64 64 64 63 63 63 64 64 65 66 66 66 66 66 65 64 63 63 62 61 60 59 59 58 57 56 56 55 55 54 54 53 53 53 53 52 52 54 56 56 51 48 47 47 48 49 49 49 50 50 51 54 55 57 59 62 62 62 62 63 63 63 63 63 64 64 64 64 63 63 63 63 63 63 64 65 65 65 65 65 65 66 66 67 67 67 66 66 66 66 66 66 67 67 67 68 68 68 68 68
63 63 63 63 63 63 63 63 63 64 65 66 66 66 66 65 64 63 63 62 61 60 59 58 57 56 55 55 55 55 53 52 51 50 51 51 50 50 50 52 53 52 49 46 44 44 44 45 45 46 46 48 49 50 53 55 58 60 62 62 62 62 62 62 62 62 62 63 63 63 62 62 62 62 61 62 62 63 64 64 64 65 65 65 65 66 66 66 66 65 65 65 65 65 65 66 66 67 67 67 67 67 68
63 63 64 63 62 62 63 63 64 65 66 66 66 65 64 63 62 61 60 60 59 58 56 55 54 53 52 54 55 54 50 48 46 46 48 48 48 49 50 53 51 48 44 42 41 41 41 42 43 43 44 45 47 49 53 55 58 59 61 61 61 61 61 61 61 61 61 61 61 61 61 60 60 60 60 60 61 61 62 63 63 63 64 64 64 65 65 64 63 63 63 63 63 63 64 64 65 65 66 66 66 66 66
63 64 63 63 62 62 63 64 65 65 66 65 65 63 62 61 60 59 58 57 56 55 54 53 52 51 50 53 51 47 45 43 42 42 42 44 45 48 50 49 45 42 40 39 39 40 40 40 41 41 41 43 45 48 53 55 58 59 60 60 60 60 60 60 60 60 60 60 60 60 59 59 59 59 59 59 60 60 61 61 61 62 63 64 64 64 63 63 62 62 62 62 62 62 63 63 63 63 64 64 64 64 64
62 63 63 62 62 63 64 64 65 65 65 64 63 62 60 59 58 56 55 54 54 52 51 50 50 50 49 48 45 42 41 40 40 39 39 40 41 43 44 41 40 39 38 38 38 38 38 39 39 40 40 41 43 47 52 55 57 59 60 60 60 60 60 60 60 60 60 59 59 59 59 59 59 59 59 59 59 59 60 60 61 62 63 63 64 63 63 63 62 62 62 62 62 62 62 62 62 62 62 62 62 63 63
62 62 61 62 62 63 63 64 63 63 63 62 61 59 57 56 54 54 54 52 51 50 49 49 47 46 44 43 41 40 39 38 38 37 37 37 37 37 38 37 37 37 37 37 37 38 38 38 38 38 39 40 41 45 50 54 56 58 59 59 60 60 60 60 60 60 59 59 59 59 59 58 58 58 58 58 59 59 59 59 60 61 62 63 63 63 63 63 62 62 62 62 61 61 61 61 60 60 60 60 61 61 61
60 60 59 60 61 61 62 61 61 61 60 61 59 56 53 52 51 51 53 50 48 47 47 46 44 41 39 38 37 37 36 36 36 35 36 35 35 35 36 36 36 36 36 36 36 37 38 37 37 37 37 38 40 44 48 53 56 57 58 59 59 59 60 60 60 59 59 59 59 58 58 58 58 57 57 57 58 58 59 59 59 60 60 61 61 61 62 62 62 62 62 62 62 61 61 60 60 59 59 59 60 60 60
59 59 59 59 59 60 60 60 59 59 58 58 57 54 51 50 49 49 49 46 45 43 43 42 41 38 37 35 34 33 33 33 33 33 32 33 33 34 34 34 35 35 34 35 36 36 37 36 36 36 37 37 40 43 48 52 55 56 57 58 59 59 59 59 59 59 59 59 58 58 58 58 57 57 57 57 57 58 58 59 59 59 59 59 59 59 59 60 60 61 61 61 61 60 60 60 59 59 59 59 59 59 59
59 59 59 59 59 59 59 59 58 57 55 55 54 52 50 49 47 46 45 43 42 40 39 37 36 36 35 32 31 31 32 32 32 32 31 30 31 32 33 33 33 33 34 35 35 35 36 36 36 36 36 36 39 43 47 51 54 55 56 57 57 58 59 59 59 59 59 59 58 58 57 57 57 57 56 56 57 57 57 58 58 58 58 58 58 58 58 58 58 58 58 58 58 58 59 58 58 58 58 58 58 57 57
59 59 58 58 58 58 58 57 56 55 54 53 51 50 48 46 45 43 42 41 40 38 37 36 35 34 33 31 31 32 32 32 32 32 32 31 30 31 32 32 32 33 34 34 34 34 34 34 34 35 36 36 38 42 46 50 53 54 54 55 56 56 57 58 58 59 58 58 58 58 57 57 57 56 56 56 56 57 57 57 57 57 57 57 57 57 56 56 56 56 56 56 56 56 56 56 56 56 56 56 56 56 56
58 57 56 56 57 56 55 54 54 53 52 51 49 47 45 43 42 41 40 39 38 37 36 36 35 34 33 32 32 32 32 32 31 31 32 31 30 30 30 31 32 32 33 34 34 33 32 32 32 33 33 35 37 40 44 49 51 52 53 54 54 54 55 56 56 57 57 57 57 57 57 57 56 56 56 56 56 56 56 56 56 56 56 56 56 56 55 55 55 55 55 55 55 54 54 54 55 55 55 55 55 55 54
57 55 54 54 55 54 53 52 51 50 50 48 46 45 43 41 40 39 38 37 37 36 36 36 35 34 33 32 31 31 32 31 31 31 31 32 31 30 29 30 31 32 32 33 33 32 32 31 31 31 31 32 35 38 41 46 49 50 51 52 52 52 53 54 54 55 56 56 56 56 56 56 56 55 55 55 55 55 55 55 55 55 55 55 54 54 54 54 54 54 54 54 54 54 54 54 54 54 54 54 54 54 54
54 53 52 53 53 52 51 50 49 47 46 45 44 43 41 40 38 37 37 36 36 36 35 35 34 34 34 32 31 30 31 30 30 30 30 31 31 31 30 29 30 30 31 32 32 31 30 30 29 28 29 31 32 35 38 43 46 49 50 50 50 51 51 52 52 53 54 54 55 55 55 55 55 54 54 54 54 54 54 54 54 54 54 54 54 54 54 54 54 53 53 53 53 53 53 53 54 54 54 54 54 54 54
53 52 51 51 50 50 50 48 46 45 45 44 43 41 40 38 37 36 36 35 35 34 33 33 34 34 33 32 30 29 29 29 29 29 30 29 30 31 30 29 29 30 31 31 30 29 28 27 27 27 28 29 31 33 35 38 43 47 48 49 49 49 49 50 50 51 52 52 53 54 54 54 54 53 53 53 53 53 53 53 53 53 53 53 53 53 53 53 53 53 52 52 53 53 53 53 53 53 53 53 53 53 53
52 51 50 49 48 47 47 45 44 43 43 42 41 39 38 36 36 35 34 33 33 32 32 32 33 33 32 31 29 28 28 28 29 29 29 28 28 29 29 28 28 28 29 30 30 29 28 27 26 26 27 27 27 29 32 34 39 44 46 47 47 48 48 48 48 49 50 50 51 52 52 53 52 52 52 52 51 51 51 51 51 51 51 51 51 51 51 52 52 52 52 52 52 52 52 52 52 52 53 53 53 53 53
50 50 49 48 47 46 45 44 42 41 41 39 38 37 36 36 35 34 33 33 32 32 31 30 30 31 31 30 29 28 30 30 29 29 28 27 27 27 27 27 27 27 28 30 30 30 29 27 26 26 27 27 27 28 29 32 36 41 44 45 45 46 46 46 47 47 48 48 49 50 50 51 51 51 50 50 50 50 50 50 50 50 50 50 50 50 50 51 51 51 51 51 51 51 51 51 51 52 52 52 52 52 52
49 48 48 47 46 45 43 41 40 39 38 37 36 36 35 35 35 34 34 33 32 31 30 29 29 29 29 28 28 28 30 29 28 27 27 27 26 25 25 25 26 27 28 29 29 29 28 27 26 25 25 25 26 27 28 29 32 36 40 42 43 44 44 45 45 45 46 46 47 48 48 49 49 50 49 49 49 49 49 49 49 49 49 50 50 50 50 50 50 50 50 50 50 50 50 51 51 51 51 51 51 52 52
47 47 46 45 44 42 40 39 38 37 36 36 35 35 35 35 34 33 33 33 33 33 32 31 31 31 31 29 29 29 28 30 29 27 27 26 26 25 25 24 24 26 28 28 28 28 27 26 25 24 24 23 23 23 25 26 28 31 35 38 40 41 42 43 43 44 44 45 45 45 46 47 47 48 48 48 48 47 47 48 48 48 48 48 48 49 49 49 49 50 50 50 50 50 50 50 50 50 50 51 51 51 51
47 45 45 44 42 40 38 37 36 36 35 35 35 35 35 35 34 34 33 33 33 33 33 32 32 32 32 30 30 30 28 29 28 27 25 25 26 26 25 23 24 25 27 27 27 27 27 26 24 23 23 23 22 22 22 24 27 29 30 33 36 38 40 41 41 42 42 43 43 44 44 45 45 46 46 46 46 46 46 46 46 46 47 47 47 47 48 48 48 49 49 49 49 49 49 49 49 50 50 50 50 50 50
45 44 43 41 40 38 37 36 35 34 34 34 35 36 35 34 34 34 33 32 32 31 30 30 30 30 31 30 30 30 30 29 28 26 24 23 25 26 25 24 24 25 24 25 27 27 27 26 24 23 22 21 21 22 24 25 26 27 28 32 34 36 38 38 39 40 41 41 42 42 42 43 44 44 44 45 45 45 45 45 45 45 45 45 46 46 47 47 47 48 48 48 48 48 48 49 49 49 49 49 50 50 50
42 41 40 39 38 37 36 35 34 34 34 34 34 35 35 33 32 31 29 29 28 27 28 30 30 29 29 29 29 29 29 28 27 24 23 23 24 25 25 24 25 25 23 24 26 27 27 25 24 23 22 21 22 23 24 25 26 26 27 30 33 35 37 36 36 37 38 40 40 41 41 41 42 42 42 43 43 43 43 43 43 44 44 45 45 45 46 46 46 47 47 47 48 48 48 48 48 48 49 49 49 49 49
40 38 37 37 36 36 34 34 34 34 34 33 32 32 32 30 29 28 27 28 27 27 28 29 29 29 28 26 27 28 28 27 25 24 23 24 23 23 23 24 25 25 23 23 25 27 27 25 24 23 23 23 23 23 23 25 25 24 24 25 27 30 32 32 32 33 36 38 38 39 39 40 40 40 41 41 41 41 41 42 42 42 43 43 44 45 45 45 46 46 46 47 47 47 47 47 47 48 48 48 48 48 49
41 40 39 38 36 35 34 33 33 34 33 32 31 29 29 28 28 28 27 27 27 27 27 26 27 29 28 26 26 27 29 27 25 24 23 24 23 23 22 24 24 24 23 25 25 26 27 25 24 24 24 23 22 22 23 23 23 23 23 23 23 24 25 27 29 30 32 35 36 37 37 38 38 39 39 39 40 40 40 40 41 41 42 42 43 44 45 45 45 45 46 46 46 46 46 47 47 47 47 47 48 48 48
44 43 41 38 36 34 32 32 32 32 31 30 29 28 29 28 28 28 28 28 28 28 28 27 27 27 27 26 26 27 29 28 26 24 24 24 23 23 23 23 23 23 23 26 26 25 25 25 24 24 24 23 22 22 23 22 22 22 22 22 22 23 23 25 27 28 29 31 34 36 36 36 37 37 37 37 38 38 38 38 39 40 41 41 42 43 44 45 45 45 45 45 45 46 46 46 46 46 46 47 47 47 47
44 41 37 35 34 33 32 32 32 30 29 28 28 28 29 28 27 27 27 27 28 29 30 28 26 24 24 25 25 26 27 27 26 25 25 25 25 24 24 23 23 23 23 25 24 23 23 24 24 23 23 23 23 22 21 21 21 22 22 22 22 23 23 24 25 25 23 26 30 33 33 35 35 36 36 36 36 36 36 37 37 38 39 40 41 42 43 44 44 45 45 45 45 45 45 46 46 46 46 46 46 46 46
41 37 34 33 32 32 32 32 30 28 27 27 27 27 28 27 27 26 25 27 27 28 31 30 27 23 23 24 24 23 25 25 26 27 26 26 25 25 25 24 23 23 23 24 23 23 23 24 24 23 23 24 24 23 21 21 22 23 24 23 23 25 26 27 27 25 22 23 25 28 30 33 34 34 34 34 35 35 35 35 36 36 37 39 40 41 42 43 43 44 44 44 45 45 45 45 45 45 45 46 46 46 46
38 35 33 32 32 32 32 31 30 28 26 26 26 26 26 26 25 25 24 26 27 27 28 29 28 26 23 23 22 22 23 23 25 26 27 26 26 26 26 25 24 23 23 24 23 23 23 24 25 25 25 25 24 23 23 23 23 24 25 24 25 26 27 28 27 26 24 23 23 25 28 31 32 32 32 33 33 33 33 33 34 35 36 37 39 40 41 41 42 43 43 44 44 44 45 45 45 45 45 45 45 45 45
35 33 32 31 31 31 32 31 29 27 26 25 25 24 24 24 25 25 26 27 26 25 25 27 27 27 25 23 21 21 22 23 23 24 26 26 25 25 26 25 24 23 23 23 23 23 22 23 24 25 26 24 23 22 23 23 23 23 24 24 25 27 28 27 27 27 27 26 25 25 27 30 31 31 31 32 32 32 32 32 32 33 34 36 37 39 39 40 41 42 42 43 43 44 44 45 45 45 45 45 45 45 45
33 32 30 29 30 30 30 30 28 27 26 25 24 23 23 23 24 25 25 26 24 23 23 26 26 26 25 22 20 20 19 20 21 23 25 24 23 24 25 24 23 23 22 22 23 23 23 23 24 26 25 21 20 20 22 22 23 23 23 24 25 27 28 27 27 28 28 27 27 26 27 28 28 29 30 30 30 30 30 30 31 32 33 34 36 37 38 39 40 41 41 42 42 43 44 44 45 45 45 45 45 45 45
31 30 29 29 29 29 29 28 28 27 26 24 23 23 23 22 23 23 24 24 23 22 21 24 27 27 24 23 21 19 19 19 20 22 24 23 24 25 26 23 22 21 22 21 22 23 23 24 26 26 22 19 18 19 20 20 22 23 24 24 25 26 27 27 27 27 27 27 26 26 28 28 26 25 27 27 27 28 28 28 29 30 31 32 34 36 36 37 38 39 40 41 42 43 43 44 44 45 45 45 45 45 45
29 28 28 28 28 28 28 28 28 28 27 24 23 21 20 21 21 22 23 23 23 22 21 23 25 27 26 25 23 20 20 20 20 22 24 24 24 25 25 23 21 20 20 20 21 22 25 26 26 23 20 18 18 18 18 19 21 23 23 23 24 26 27 27 27 26 24 24 25 26 29 27 24 21 21 19 20 22 24 26 28 29 30 31 32 34 35 36 36 37 38 39 41 42 43 43 44 44 45 45 45 45 45
28 27 27 27 27 28 28 27 28 28 26 24 22 19 19 18 19 20 21 23 23 22 22 23 23 23 24 24 22 20 20 20 21 22 23 23 22 22 23 22 20 19 19 19 21 23 24 25 23 20 20 19 19 19 19 19 20 19 19 21 23 25 26 26 25 24 23 23 24 25 25 23 21 19 18 16 16 17 19 23 26 28 29 30 31 32 33 34 35 36 36 38 39 41 42 43 43 44 44 45 45 45 45
28 27 26 26 26 27 27 27 27 28 26 24 22 20 19 18 18 19 20 21 22 22 22 22 22 21 21 20 20 20 20 20 21 22 22 20 19 19 20 20 20 19 18 19 21 22 23 22 21 19 20 19 18 18 18 18 18 18 18 19 21 22 23 22 22 22 22 22 23 23 22 21 19 18 17 16 15 15 17 18 21 25 27 29 30 31 32 32 33 34 35 36 38 40 41 42 43 43 44 44 44 44 44
27 27 25 25 26 26 26 26 27 27 26 24 23 21 20 20 19 19 20 21 22 23 23 22 22 21 19 18 18 19 19 20 22 22 21 18 17 16 17 18 18 18 18 20 22 23 22 22 21 20 20 19 18 16 16 16 17 18 18 19 18 18 19 19 20 20 21 21 22 21 21 20 19 18 17 16 16 16 16 16 17 20 25 27 28 29 30 30 31 32 33 35 37 38 40 41 42 42 43 43 43 44 44
27 26 25 25 25 25 24 25 26 27 26 25 24 23 22 21 20 18 18 19 23 24 23 23 22 21 18 17 18 19 20 22 22 21 18 16 15 15 15 16 17 16 15 18 22 23 22 21 21 21 21 18 17 16 16 15 17 18 18 18 17 17 18 18 18 19 20 19 19 19 20 19 19 18 17 17 17 17 17 16 17 18 22 23 25 27 28 29 30 31 32 34 36 37 39 40 41 41 42 42 43 43 44
27 25 25 24 25 25 24 25 26 27 27 25 24 23 23 21 20 19 18 18 19 19 18 18 20 20 19 18 19 21 21 22 21 19 14 14 15 17 17 17 15 14 12 14 19 23 23 22 22 22 20 18 17 16 16 15 16 18 18 17 17 17 18 17 17 18 18 18 18 18 19 19 19 18 17 18 18 17 18 17 17 18 18 18 19 21 24 25 28 30 31 33 34 36 36 38 39 41 41 42 43 44 44
27 26 25 25 25 25 26 26 25 25 24 24 23 21 21 19 19 20 20 19 18 18 17 16 16 18 21 20 21 23 24 22 20 18 15 14 16 19 23 20 16 12 11 10 14 19 21 18 18 18 18 18 18 16 16 14 15 17 20 18 18 18 18 17 16 16 16 16 16 17 18 18 18 19 19 19 18 18 18 18 17 17 17 18 19 21 23 25 27 30 31 32 33 34 34 36 37 39 41 41 42 43 44
27 26 26 26 26 27 27 26 23 22 23 23 21 20 21 20 19 19 19 19 19 19 19 20 18 17 18 19 20 22 24 23 21 20 18 17 16 17 19 16 13 11 12 10 10 11 15 13 13 14 15 16 16 16 15 14 15 17 20 21 20 19 17 16 15 15 14 14 15 15 16 17 18 20 20 19 18 18 18 18 18 17 17 18 19 21 22 27 29 31 31 31 32 33 33 34 36 37 39 41 42 43 44
27 26 25 25 26 26 26 24 23 23 24 24 23 21 20 19 19 18 17 17 17 17 18 20 20 18 15 16 17 18 21 22 22 21 20 20 17 14 12 12 12 13 15 13 10 8 8 10 11 12 14 15 15 15 17 17 17 18 20 20 19 18 16 16 15 14 14 13 14 15 16 17 18 19 20 19 18 18 18 18 18 18 18 18 18 18 20 24 28 30 30 30 30 31 32 33 34 36 38 40 41 42 43
27 26 25 25 24 24 23 23 23 24 25 25 24 22 20 19 18 18 17 18 17 16 17 18 17 16 16 15 15 16 18 21 22 21 20 21 19 17 13 12 12 12 13 13 10 7 7 9 11 12 12 14 14 14 14 14 16 17 18 18 18 17 15 14 14 13 13 13 14 14 16 17 18 19 19 19 18 18 18 18 18 18 18 18 19 21 23 26 27 27 26 27 28 30 30 32 34 36 37 39 40 41 42
27 26 25 24 23 23 23 22 23 23 25 25 24 23 21 20 19 19 19 18 18 18 18 18 17 18 18 16 15 15 17 20 22 22 20 20 21 21 18 14 11 8 5 5 5 7 9 11 11 10 10 13 13 12 13 14 16 17 18 17 16 15 15 14 13 13 13 14 14 14 15 17 18 18 18 18 18 18 18 18 18 18 18 19 20 21 22 23 23 23 23 25 27 29 30 32 34 36 37 38 40 41 41
27 25 24 24 23 23 23 23 23 23 24 24 23 23 22 21 20 20 20 19 19 19 19 19 19 19 20 19 17 16 15 17 20 23 22 22 22 23 23 18 15 13 11 9 8 9 10 12 10 8 9 13 14 14 15 17 18 18 18 16 15 15 15 14 14 14 14 14 15 15 15 17 17 18 19 19 18 18 18 18 18 18 18 19 19 19 19 21 22 22 22 23 24 27 30 32 34 36 37 38 39 40 41
27 25 24 24 23 23 23 24 23 23 24 24 23 23 23 22 21 20 20 19 19 20 21 20 20 20 20 21 20 18 15 15 17 20 23 24 23 23 23 20 20 19 17 16 15 14 13 12 10 9 8 9 14 17 17 17 16 15 14 14 13 13 14 14 15 15 15 15 15 15 15 17 18 19 19 19 18 17 18 18 18 18 18 19 19 18 19 20 21 22 22 23 25 27 30 32 34 36 37 38 39 40 40
27 26 24 24 23 23 23 23 23 24 24 24 23 23 22 21 21 21 21 22 22 22 20 20 20 21 21 22 21 19 16 16 17 18 20 22 23 23 23 21 20 20 21 21 20 18 17 13 11 10 9 8 10 14 18 16 14 13 13 13 13 13 14 15 16 17 17 16 16 16 15 16 18 18 17 17 17 17 17 18 18 18 19 19 19 18 19 22 23 23 25 27 28 29 31 32 33 35 36 38 39 40 40
28 26 24 23 23 23 23 23 24 24 25 24 24 23 22 21 21 22 23 24 23 22 21 21 21 22 23 22 21 19 17 18 19 20 19 18 19 21 21 19 18 18 19 20 20 20 19 16 15 14 13 12 10 10 12 15 15 14 14 13 13 13 14 16 17 17 17 16 16 17 15 15 16 17 16 16 16 17 17 18 19 19 20 19 18 18 18 18 20 22 24 26 27 28 31 32 33 35 36 38 39 40 40
28 27 25 24 24 23 23 23 24 24 25 24 24 23 23 22 21 21 21 21 22 22 22 22 23 23 23 23 22 21 19 19 20 21 20 18 18 18 19 18 17 17 18 18 19 19 18 18 18 18 18 16 14 11 9 11 13 14 14 14 14 14 15 15 16 16 16 16 16 15 15 15 15 16 16 17 17 17 17 18 18 19 19 18 18 17 18 18 18 19 21 23 25 28 31 32 33 35 36 37 38 39 40